Current Conditions
Clear
Conditions



Pressure
1013.92 (mb) - 29.94 (inHG)
Visibility

10.0 (km) - 6.2 (miles)
   Temperature
7  °C
45°F
6  °C
Dewpoint
93  %
 Humidity
   Wind Speed
3  km/h
2  kts
2  mph
0.9  m/s
   Wind Direction
 300°
West North
West
   Airport Data
LELN
Location Leon Airport 15 km (9.32 mi)
Metar :LELN 222030Z AUTO 30002KT CAVOK 07/06 Q1014
Thu 22nd October 22:30 pm
   Raw Metar Info
Raw METAR is the most common format in the world for the transmission of observational weather data. It is highly standardized through the International Civil Aviation Organization (ICAO), which allows it to be understood throughout most of the world.
   API Info
Data Provided by
https://www.checkwx.com/weather/LELN
   © Info
CSS/SVG/PHP scripts were developed by weather34.com for use in the weather34 template © 2015-2020

Guide Info provided by Metar-Wikipedia